Weather History for Iron Mountain, MI

Change the Weather History Date:

Tuesday, April 2, 2013

  Actual Average Record
Temperature  
Mean Temperature 22 °F -  
Max Temperature 34 °F 44 °F 71 °F (1963)
Min Temperature 12 °F 23 °F 8 °F (1954)
Degree Days  
Heating Degree Days 42    
Moisture  
Dew Point 7 °F    
Average Humidity 49    
Maximum Humidity 71    
Minimum Humidity 33    
Precipitation  
Precipitation 0.00 in - - ()
Sea Level Pressure  
Sea Level Pressure 30.20 in    
Wind  
Wind Speed 7 mph (NW)    
Max Wind Speed 18 mph    
Max Gust Speed 28 mph    
Visibility 10 miles    
Events      
Averages and records for this station are not official NWS values.
T = Trace of Precipitation, MM = Missing Value Source: NWS Daily Summary

Daily Weather History Graph

Daily Weather History Graph

Search for Another Location

Airport:

Trip Planner

Search our weather history database for the weather conditions in past years. The results will help you decide how hot, cold, wet, or windy it might be!

Date:

Astronomy

Apr. 02, 2013 Rise Set
Actual Time 6:30 AM CDT 7:22 PM CDT
Civil Twilight 5:59 AM CDT 7:52 PM CDT
Nautical Twilight 5:23 AM CDT 8:28 PM CDT
Astronomical Twilight 4:46 AM CDT 9:06 PM CDT
Moon 1:39 AM CDT (4/2) 11:08 AM CDT (4/2)
Length of Visible Light 13h 52m
Length of Day
12h 52m
Waning Gibbous, 55% of the Moon is Illuminated
Apr 2
Waning Gibbous
Apr 2
Last Quarter
Apr 10
New
Apr 18
First Quarter
Apr 25
Full

Hourly Weather History & Observations

Time (CDT) Temp. Windchill Dew Point Humidity Pressure Visibility Wind Dir Wind Speed Gust Speed Precip Events Conditions
12:54 AM 19.9 °F 11.1 °F 6.1 °F 55% 30.10 in 10.0 mi WNW 6.9 mph - N/A   Clear
1:54 AM 19.0 °F 10.0 °F 6.1 °F 57% 30.11 in 10.0 mi WNW 6.9 mph - N/A   Clear
2:54 AM 17.1 °F - 6.1 °F 62% 30.11 in 10.0 mi Calm Calm - N/A   Clear
3:54 AM 17.1 °F 11.7 °F 6.1 °F 62% 30.12 in 10.0 mi NW 3.5 mph - N/A   Clear
4:54 AM 16.0 °F - 6.1 °F 65% 30.13 in 10.0 mi Calm Calm - N/A   Clear
5:54 AM 12.9 °F - 5.0 °F 71% 30.14 in 10.0 mi Calm Calm - N/A   Clear
6:54 AM 15.1 °F 7.7 °F 6.1 °F 68% 30.16 in 10.0 mi WNW 4.6 mph - N/A   Clear
7:54 AM 18.0 °F 9.8 °F 7.0 °F 62% 30.18 in 10.0 mi WNW 5.8 mph - N/A   Clear
8:54 AM 23.0 °F 13.9 °F 10.0 °F 58% 30.19 in 10.0 mi WNW 8.1 mph - N/A   Clear
9:54 AM 27.0 °F 16.1 °F 10.9 °F 51% 30.19 in 10.0 mi WNW 12.7 mph 21.9 mph N/A   Clear
10:54 AM 28.0 °F 16.1 °F 10.9 °F 49% 30.19 in 10.0 mi NNW 16.1 mph 24.2 mph N/A   Overcast
11:54 AM 30.0 °F 21.1 °F 10.0 °F 43% 30.19 in 10.0 mi NW 10.4 mph 23.0 mph N/A   Mostly Cloudy
12:54 PM 30.9 °F 20.7 °F 10.9 °F 43% 30.19 in 10.0 mi NW 13.8 mph 23.0 mph N/A   Overcast
1:54 PM 33.1 °F 22.2 °F 9.0 °F 37% 30.19 in 10.0 mi NW 17.3 mph 27.6 mph N/A   Scattered Clouds
2:54 PM 33.1 °F 21.9 °F 9.0 °F 37% 30.19 in 10.0 mi WNW 18.4 mph 25.3 mph N/A   Partly Cloudy
3:54 PM 33.1 °F 22.6 °F 9.0 °F 37% 30.19 in 10.0 mi NNW 16.1 mph 26.5 mph N/A   Clear
4:54 PM 33.1 °F 22.2 °F 8.1 °F 35% 30.20 in 10.0 mi NNW 17.3 mph 25.3 mph N/A   Clear
5:54 PM 32.0 °F 23.0 °F 8.1 °F 37% 30.23 in 10.0 mi NW 11.5 mph - N/A   Clear
6:54 PM 28.9 °F 19.2 °F 3.0 °F 33% 30.25 in 10.0 mi NNW 11.5 mph - N/A   Clear
7:54 PM 27.0 °F 16.1 °F 3.0 °F 36% 30.27 in 10.0 mi NNW 12.7 mph - N/A   Clear
8:54 PM 26.1 °F 18.4 °F 3.9 °F 39% 30.28 in 10.0 mi NNW 6.9 mph - N/A   Clear
9:54 PM 24.1 °F - 3.9 °F 42% 30.29 in 10.0 mi Calm Calm - N/A   Clear
10:54 PM 17.1 °F - 3.9 °F 56% 30.30 in 10.0 mi Calm Calm - N/A   Clear
11:54 PM 18.0 °F - 3.0 °F 52% 30.30 in 10.0 mi Calm Calm - N/A   Clear